CAPE
27 17 8 20 0 0 0 0 2 9 5 4 3 5 13 7 6 11 8 1 2 0 0 0 0 0 0 0 0 0 0 0 0 0 0 0 0 0 0 0 0 0 0 0 0 0 0
4 1 6 25 16 0 1 2 7 15 8 1 1 5 6 5 5 3 8 1 2 0 0 0 0 0 0 0 0 0 0 0 0 0 0 0 0 0 0 0 0 0 0 0 0 0 0
3 0 0 0 13 11 1 2 1 3 3 2 6 8 7 10 8 6 8 2 4 0 0 0 0 0 0 0 0 0 0 0 0 0 0 0 0 0 0 0 0 0 0 0 0 0 0
14 6 0 0 0 4 8 12 2 1 2 0 6 6 4 6 8 13 6 1 0 0 0 0 0 0 0 0 0 0 0 0 0 0 0 0 0 0 0 0 0 0 0 0 0 0 0
4 19 8 0 2 6 8 10 2 0 1 1 1 4 6 5 4 8 2 1 0 0 0 0 0 0 0 0 0 0 0 0 0 0 0 0 0 0 0 0 0 0 0 0 0 0 0
13 14 18 9 14 0 6 28 16 4 6 2 0 1 6 6 9 1 1 0 0 0 0 0 0 0 0 0 0 0 0 0 0 0 0 0 0 0 0 0 0 0 0 0 0 0 0
0 13 10 19 12 6 5 25 28 19 6 6 3 0 1 6 8 1 4 0 0 0 0 0 0 0 0 0 0 0 0 0 0 0 0 0 0 0 0 0 0 0 0 0 0 0 0
2 7 17 15 15 8 5 10 17 18 12 9 8 0 0 18 10 4 2 0 0 0 0 0 0 0 0 0 0 0 0 0 0 0 0 0 0 0 0 0 0 0 0 0 0 0 0
7 7 7 9 23 12 14 12 12 13 15 11 8 0 0 6 14 5 0 0 0 0 0 0 0 0 0 0 0 0 0 0 0 0 0 0 0 0 0 0 0 0 0 0 0 0 0
5 8 7 11 18 22 11 18 15 13 11 12 6 3 0 4 3 0 0 0 0 0 0 0 0 0 0 0 0 0 0 0 0 0 0 0 0 0 0 0 0 0 0 0 0 0 0
6 4 6 8 23 29 12 14 17 10 15 14 10 8 16 0 2 0 0 0 0 0 0 0 0 0 0 0 0 0 0 0 0 0 0 0 0 0 0 0 0 0 0 0 0 0 0
10 7 6 9 11 12 14 23 16 11 11 11 9 7 13 9 0 0 0 0 0 0 0 0 0 0 0 0 0 0 0 0 0 0 0 0 0 0 0 0 0 0 0 0 0 0 0
7 8 11 6 11 6 6 29 23 16 11 7 3 7 13 13 0 0 0 0 0 0 0 0 0 0 0 0 0 0 0 0 0 0 0 0 0 0 0 0 0 0 0 0 0 0 0
1 6 10 11 5 9 9 4 21 25 13 9 6 9 14 2 0 0 0 0 0 0 0 0 0 0 0 0 0 0 0 0 0 0 0 0 0 0 0 0 0 0 0 0 0 0 0
0 0 2 9 12 7 8 4 18 30 15 4 4 32 2 0 0 0 0 0 0 0 0 0 0 0 0 0 0 0 0 0 0 0 0 0 0 0 0 0 0 0 0 0 0 0 0
1 0 0 3 7 9 13 16 8 18 6 7 10 3 4 0 0 0 0 0 0 0 0 0 0 0 0 0 0 0 0 0 0 0 0 0 0 0 0 0 0 0 0 0 0 0 0
24 9 5 0 6 7 13 17 19 19 2 12 3 6 0 0 0 0 0 0 0 0 0 0 0 0 0 0 0 0 0 0 0 0 0 0 0 0 0 0 0 0 0 0 0 0 0
9 2 32 23 7 10 16 15 31 15 10 3 0 1 0 0 0 0 0 0 0 0 0 0 0 0 0 0 0 0 0 0 0 0 0 0 0 0 0 0 0 0 0 0 0 0 0
0 21 3 7 29 10 30 18 30 13 13 0 0 0 0 0 0 0 0 0 0 0 0 0 0 0 0 0 0 0 0 0 0 0 0 0 0 0 0 0 0 0 0 0 0 0 0
28 13 9 0 53 48 30 52 31 23 7 1 0 0 1 0 0 0 0 0 0 0 0 0 0 0 0 0 0 0 0 0 0 0 0 0 0 0 0 0 0 0 0 0 0 0 0
30 20 15 15 9 9 35 50 69 30 8 2 0 0 0 0 0 0 0 0 0 0 0 0 0 0 0 0 0 0 0 0 0 0 0 0 0 0 0 0 0 0 0 0 0 0 0
16 19 21 22 23 15 28 35 40 75 21 0 0 2 2 0 0 0 0 0 0 0 0 0 0 0 0 0 0 0 0 0 0 0 0 0 0 0 0 0 0 0 0 0 0 0 0
32 10 15 15 19 20 0 25 41 68 19 2 7 0 0 0 0 0 0 0 0 0 0 0 0 0 0 0 0 0 0 0 0 0 0 0 0 0 0 0 0 0 0 0 0 0 0
46 19 10 23 9 14 0 16 46 54 9 12 6 0 0 0 0 0 0 0 0 0 0 0 0 0 0 0 0 0 0 0 0 0 0 0 0 0 0 0 0 0 0 0 0 0 0
19 35 6 9 22 23 10 21 16 37 20 25 17 2 0 0 0 0 0 0 0 0 0 0 0 0 0 0 0 0 0 0 0 0 0 0 0 0 0 0 0 0 0 0 0 0 0
58 19 36 1 9 16 17 3 30 33 21 20 15 12 5 0 0 0 0 0 0 0 0 0 0 0 0 0 0 0 0 0 0 0 0 0 0 0 0 0 0 0 0 0 0 0 0
41 44 23 32 1 0 25 7 9 6 0 1 6 13 0 0 0 3 0 0 0 0 0 0 0 0 0 0 0 0 0 0 0 0 0 0 0 0 0 0 0 0 0 0 0 0 0
30 11 22 20 15 1 18 12 26 0 0 0 1 1 0 0 0 3 4 1 1 0 0 0 0 0 0 0 0 0 0 0 1 0 0 0 0 0 0 0 0 0 0 0 0 0 0
29 17 33 3 13 12 2 22 39 1 0 0 0 1 2 0 0 1 1 2 0 0 0 0 0 0 0 0 0 1 0 2 0 0 0 0 0 0 0 0 0 0 0 0 1 0 0
CIN
0 -2 -4 0 0 0 -4 0 -6 -7 -3 -3 -17 -12 -8 -4 -2 -5 -2 -1 0 0 0 0 0 0 0 0 0 0 0 0 0 0 0 0 0 0 0 0 0 0 0 0 0 0 0
0 -1 -5 0 0 0 -11 -13 -7 -6 -6 -4 -7 -4 -7 -6 -2 -3 -2 0 0 0 0 0 0 0 0 0 0 0 0 0 0 0 0 0 0 0 0 0 0 0 0 0 0 0 0
0 0 0 0 -3 -2 -3 -12 -11 -12 -12 -14 -6 -3 -2 -2 -1 -2 -1 0 -1 0 0 0 0 0 0 0 0 0 0 0 0 0 0 0 0 0 0 0 0 0 0 0 0 0 0
0 0 0 0 0 -3 -2 -1 -15 -9 -5 -1 -6 -2 -2 -5 -4 -2 -2 -1 0 0 0 0 0 0 0 0 0 0 0 0 0 0 0 0 0 0 0 0 0 0 0 0 0 0 0
0 0 0 0 0 -2 -5 -2 -12 -6 -3 -8 0 -2 -3 -4 -4 -5 -2 0 0 0 0 0 0 0 0 0 0 0 0 0 0 0 0 0 0 0 0 0 0 0 0 0 0 0 0
0 0 0 -1 -1 0 -5 -2 -7 -14 -15 -11 0 0 -2 -2 -5 -4 0 0 0 0 0 0 0 0 0 0 0 0 0 0 0 0 0 0 0 0 0 0 0 0 0 0 0 0 0
0 0 -1 0 -1 -2 -2 0 -2 -3 -10 -12 -7 0 0 -2 -3 -2 0 0 0 0 0 0 0 0 0 0 0 0 0 0 0 0 0 0 0 0 0 0 0 0 0 0 0 0 0
0 0 0 0 0 -4 -2 0 -2 -5 -6 -10 -10 0 0 -1 -3 0 -1 0 0 0 0 0 0 0 0 0 0 0 0 0 0 0 0 0 0 0 0 0 0 0 0 0 0 0 0
0 0 0 -3 0 -1 -4 -1 -4 -6 -4 -8 -11 0 0 -1 -2 -1 0 0 0 0 0 0 0 0 0 0 0 0 0 0 0 0 0 0 0 0 0 0 0 0 0 0 0 0 0
0 0 0 0 0 0 -4 -5 -3 -7 -4 -5 -8 -9 0 -1 -1 -1 0 0 0 0 0 0 0 0 0 0 0 0 0 0 0 0 0 0 0 0 0 0 0 0 0 0 0 0 0
0 0 0 0 0 0 -6 -3 0 -7 -4 -3 -2 -7 -1 0 -1 0 0 0 0 0 0 0 0 0 0 0 0 0 0 0 0 0 0 0 0 0 0 0 0 0 0 0 0 0 0
0 0 0 0 -3 -2 -3 -2 0 -5 -5 -2 -3 -7 -3 -2 0 0 0 0 0 0 0 0 0 0 0 0 0 0 0 0 0 0 0 0 0 0 0 0 0 0 0 0 0 0 0
-1 -1 -1 -1 -2 0 -3 0 -1 -4 -6 -6 -14 -5 -2 0 0 0 0 0 0 0 0 0 0 0 0 0 0 0 0 0 0 0 0 0 0 0 0 0 0 0 0 0 0 0 0
-2 -1 -1 -1 -2 -3 -2 -4 0 0 -3 -7 -8 -3 -1 -1 0 0 0 0 0 0 0 0 0 0 0 0 0 0 0 0 0 0 0 0 0 0 0 0 0 0 0 0 0 0 0
0 0 -1 -1 -1 -1 -3 -2 -1 0 -1 -5 -3 0 0 0 0 0 0 0 0 0 0 0 0 0 0 0 0 0 0 0 0 0 0 0 0 0 0 0 0 0 0 0 0 0 0
0 0 0 -1 -2 -2 -2 -4 -4 -2 -6 -5 0 -1 -1 0 0 0 0 0 0 0 0 0 0 0 0 0 0 0 0 0 0 0 0 0 0 0 0 0 0 0 0 0 0 0 0
0 0 -7 0 -1 -2 -3 -3 -3 0 -9 -1 -1 0 0 0 0 0 0 0 0 0 0 0 0 0 0 0 0 0 0 0 0 0 0 0 0 0 0 0 0 0 0 0 0 0 0
0 0 0 0 -3 -2 -2 -3 -1 -1 -10 -1 0 0 0 0 0 0 0 0 0 0 0 0 0 0 0 0 0 0 0 0 0 0 0 0 0 0 0 0 0 0 0 0 0 0 0
0 0 0 0 -1 -23 -24 -9 -2 -1 -7 0 0 0 0 0 0 0 0 0 0 0 0 0 0 0 0 0 0 0 0 0 0 0 0 0 0 0 0 0 0 0 0 0 0 0 0
0 0 0 -2 0 0 -3 -5 -25 0 -6 0 0 0 0 0 0 0 0 0 0 0 0 0 0 0 0 0 0 0 0 0 0 0 0 0 0 0 0 0 0 0 0 0 0 0 0
0 0 -1 0 0 0 -1 -3 -1 -3 -3 -3 0 0 0 0 0 -1 0 0 0 0 0 0 0 0 0 0 0 0 0 0 0 0 0 0 0 0 0 0 0 0 0 0 0 0 0
0 0 0 0 0 0 0 -1 -2 0 -7 0 0 0 0 0 0 0 0 0 0 0 0 0 0 0 0 0 0 0 0 0 0 0 0 0 0 0 0 0 0 0 0 0 0 0 0
-1 -4 -2 -2 0 0 -4 0 -1 0 -11 -20 -2 0 0 0 0 0 0 0 0 0 0 0 0 0 0 0 0 0 0 0 0 0 0 0 0 0 0 0 0 0 0 0 0 0 0
0 -1 -5 -1 -2 -1 0 -1 0 0 -16 -3 -5 0 0 0 0 0 0 0 0 0 0 0 0 0 0 0 0 0 0 0 0 0 0 0 0 0 0 0 0 0 0 0 0 0 0
-8 -1 -11 -2 -3 -4 -2 -1 -3 -1 0 -1 -5 -6 0 0 0 0 0 0 0 0 0 0 0 0 0 0 0 0 0 0 0 0 0 0 0 0 0 0 0 0 0 0 0 0 0
0 0 -1 -7 -2 -9 -4 -13 -5 -1 -1 0 -2 -4 -7 0 0 0 0 0 0 0 0 0 0 0 0 0 0 0 0 0 0 0 0 0 0 0 0 0 0 0 0 0 0 0 0
-5 0 -4 -3 -7 -2 -4 -9 -4 -10 -5 0 0 -4 0 0 0 -1 0 0 0 0 0 0 0 0 0 0 0 0 0 0 0 0 0 0 0 0 0 -2 0 0 0 0 0 0 0
-14 -9 -3 -5 -3 -20 -9 -6 0 0 0 0 0 0 0 0 -1 -1 -1 0 0 0 0 0 0 0 0 0 0 0 0 -1 -1 0 0 0 0 0 0 -2 0 0 0 0 0 0 0
-4 -5 -1 -3 -14 -17 -18 -3 0 0 0 0 0 0 0 0 0 0 0 0 0 0 0 0 0 0 0 0 0 -1 0 -1 0 0 0 0 0 0 0 0 0 0 0 0 0 0 0
Wind_Speed
9 10 11 12 14 18 19 17 20 20 16 16 17 15 17 16 15 17 17 18 18 19 20 20 20 21 20 20 20 19 20 19 17 17 18 18 17 16 16 15 14 14 13 13 11 10 7
14 14 16 15 16 17 17 15 15 16 16 16 18 19 17 18 18 18 18 18 18 19 19 20 20 21 21 22 19 20 19 17 17 18 17 18 18 13 13 16 18 13 9 9 10 10 10
17 16 14 15 17 17 17 15 13 12 15 17 17 19 19 18 19 19 18 17 17 18 19 20 20 20 22 21 18 19 17 17 18 18 18 17 15 18 13 14 10 7 12 10 12 12 13
19 16 18 17 17 18 19 16 14 15 18 20 20 18 20 19 18 19 17 17 18 18 18 18 20 20 23 18 19 18 17 15 14 14 12 12 11 13 17 8 13 16 15 17 13 12 15
19 19 17 19 17 18 19 16 16 17 17 17 20 22 19 21 19 17 16 17 18 18 18 18 19 21 24 18 19 19 17 17 16 15 14 15 16 17 16 17 19 20 20 19 18 15 15
22 21 19 16 15 17 19 19 15 14 16 17 15 19 21 19 19 15 15 16 15 16 17 17 19 22 22 22 19 19 17 17 18 16 18 20 20 22 22 23 25 24 24 22 22 17 19
23 19 22 23 18 19 20 19 15 14 16 17 16 15 17 17 16 14 13 14 15 18 19 22 21 22 18 18 18 19 18 18 18 21 25 23 27 29 26 25 26 27 25 24 20 20 21
23 24 22 22 20 18 19 18 16 16 17 16 14 15 15 16 14 15 18 21 21 19 21 21 20 19 17 18 22 20 19 22 22 25 22 25 32 26 22 25 26 25 25 26 24 21 23
23 23 24 24 22 17 18 19 19 17 18 14 15 14 14 14 13 17 20 22 19 18 22 22 22 22 20 19 23 22 21 21 24 26 26 29 27 24 26 26 27 28 29 27 28 23 26
25 23 23 24 23 19 19 20 19 18 17 18 15 14 12 11 16 18 21 20 17 18 26 25 25 24 21 19 24 20 20 22 23 27 25 28 25 26 27 28 28 32 26 25 26 27 33
24 24 23 22 21 18 19 20 18 19 18 17 14 14 12 10 16 18 17 14 14 17 33 20 22 19 20 23 19 22 18 21 24 24 25 28 26 27 29 28 26 30 23 25 27 30 33
23 24 24 23 23 21 21 20 17 17 15 15 14 13 12 17 19 16 13 12 14 24 34 21 19 23 23 23 23 19 21 19 19 23 23 26 23 25 27 24 26 18 22 24 27 29 42
26 25 24 23 23 22 21 19 18 17 15 15 15 15 12 14 19 13 12 13 23 32 20 23 22 19 22 25 24 24 24 25 27 29 31 27 28 25 23 26 24 25 25 33 37 37 42
30 29 27 26 24 23 21 21 19 18 17 16 15 15 14 17 15 12 14 21 33 27 25 18 18 16 22 20 25 24 25 31 30 26 25 32 36 29 25 29 31 29 31 35 41 40 40
34 32 31 30 28 25 23 21 19 17 16 15 15 16 17 16 13 14 20 31 31 26 20 20 14 20 23 22 22 24 28 31 29 27 31 30 33 25 25 26 26 31 36 29 35 35 40
36 34 34 32 30 28 25 23 20 18 16 16 17 18 21 15 14 17 26 33 31 23 18 20 25 21 23 20 21 21 24 26 29 27 25 26 31 27 26 25 27 28 25 32 32 39 43
37 37 36 35 33 31 28 25 22 20 17 16 17 21 20 15 16 24 33 32 30 23 20 21 26 25 24 20 21 22 22 22 22 24 25 25 29 27 25 31 31 30 32 30 30 35 40
41 37 46 37 35 34 31 28 25 22 19 18 21 30 18 18 26 31 37 30 28 26 24 24 23 22 22 21 22 24 25 23 17 15 24 24 26 32 32 26 27 30 33 31 37 38 37
42 45 33 44 36 34 33 31 28 27 25 21 26 27 20 23 37 37 32 34 32 29 29 27 27 25 23 24 26 25 23 21 16 17 18 20 27 31 31 30 28 33 33 32 32 33 40
40 37 38 43 40 35 35 34 32 31 28 22 26 32 27 31 34 37 37 38 36 30 30 29 28 25 26 27 26 25 25 23 19 20 21 19 28 33 38 32 25 33 32 31 32 40 40
40 39 36 33 38 39 34 35 35 34 32 26 29 34 32 39 43 37 33 34 36 35 29 27 31 32 31 33 31 31 26 24 22 23 24 25 34 34 35 30 28 30 30 29 36 38 42
40 38 39 36 34 32 37 37 36 35 34 33 37 32 29 34 35 38 38 43 40 35 31 34 37 30 29 34 32 32 29 30 30 26 28 28 38 33 40 35 37 44 43 39 39 42 48
36 37 36 39 38 37 34 39 32 36 34 33 34 31 32 34 35 40 46 42 41 33 35 34 32 32 36 37 30 27 24 25 26 29 31 32 35 39 50 38 42 55 51 46 46 46 47
33 33 33 36 37 39 32 37 33 36 37 32 30 29 35 41 39 43 39 39 41 36 38 32 31 33 30 23 23 30 37 40 42 42 35 39 39 40 49 40 55 48 38 38 43 46 44
32 31 32 31 31 34 28 25 35 35 43 34 28 31 34 43 39 40 42 39 40 40 40 38 33 31 23 26 33 37 39 42 46 46 44 40 39 44 49 50 54 63 42 37 40 56 43
29 29 28 30 28 29 29 28 32 36 43 37 32 28 32 41 44 39 40 36 39 38 39 40 34 26 28 35 35 46 49 43 40 38 35 40 42 44 45 50 58 61 37 33 33 62 35
26 27 28 28 29 26 24 26 27 22 26 32 36 30 30 41 44 36 39 40 36 38 41 36 32 31 28 36 44 48 50 38 46 45 38 35 38 47 49 51 53 43 31 23 42 42 27
20 20 21 22 22 22 22 20 19 24 25 27 27 28 34 37 38 35 35 38 34 35 39 32 28 30 31 38 39 38 43 41 44 42 39 38 38 43 46 49 55 33 30 43 39 31 31
17 16 15 17 20 19 18 17 14 17 16 17 25 24 23 29 27 24 23 28 33 34 33 29 32 27 27 31 34 34 40 37 43 52 37 46 41 41 40 45 35 32 32 29 31 30 31
Wind_Direction
336 333 322 310 300 281 283 289 269 271 282 274 273 279 270 267 270 267 268 268 269 266 264 267 269 273 266 261 266 283 279 273 266 261 257 256 256 260 260 268 275 280 287 294 295 297 301
306 310 308 304 293 287 286 294 285 279 279 280 275 274 271 268 268 268 269 269 270 268 266 266 271 273 263 257 277 283 279 273 266 261 259 259 261 266 269 270 270 283 293 296 295 298 294
298 298 303 303 293 288 284 288 291 287 281 279 280 271 268 270 267 265 268 271 273 270 270 269 273 272 263 263 278 281 282 274 269 262 259 262 265 263 270 269 280 285 282 290 289 291 291
295 297 293 294 294 288 282 282 285 285 279 279 273 273 266 266 267 265 269 271 272 271 273 274 273 270 263 275 278 277 278 275 276 272 263 268 270 269 269 271 275 272 275 273 283 286 293
295 292 293 290 290 287 284 282 282 279 280 283 272 266 266 261 265 267 272 273 274 274 272 276 272 268 262 276 268 275 277 266 267 267 265 265 266 263 261 258 265 265 271 270 279 279 290
291 287 286 291 288 285 280 279 281 281 280 280 285 272 262 262 263 267 269 273 276 276 276 278 274 266 268 262 268 271 276 268 264 259 258 259 261 257 255 252 258 262 267 272 273 278 277
289 289 282 278 283 282 278 277 279 279 281 278 279 277 269 261 263 264 263 269 271 273 268 268 265 266 276 273 272 269 271 265 262 257 252 255 254 251 253 254 266 268 266 271 276 283 279
289 285 285 282 277 278 278 272 275 278 279 279 277 275 268 264 261 261 260 265 270 277 266 270 272 271 279 272 262 264 268 258 255 253 256 255 253 258 261 259 263 266 266 270 279 281 281
285 284 282 280 280 273 276 268 270 273 275 276 275 274 266 262 262 262 259 268 276 276 272 266 267 266 269 269 263 258 262 260 256 254 251 255 260 260 258 258 259 264 266 270 276 281 282
280 280 281 278 276 274 273 272 268 267 269 271 269 270 260 256 265 263 262 269 275 279 269 265 261 265 266 268 264 267 265 262 261 255 255 261 262 259 256 258 261 261 270 273 275 277 277
275 275 276 275 275 270 272 272 266 269 266 266 264 264 251 221 275 256 268 269 274 277 263 269 262 272 263 258 267 263 269 264 258 258 256 258 258 256 257 260 263 264 271 272 275 276 279
270 270 270 269 268 270 270 267 263 266 263 260 262 259 244 253 271 266 264 263 269 261 262 271 270 259 255 259 263 264 261 268 265 261 265 262 268 263 261 265 264 263 270 276 278 278 272
264 264 263 262 263 264 264 262 257 260 258 256 259 257 237 251 270 260 249 252 256 255 270 270 269 266 256 256 258 258 253 251 252 253 253 260 261 266 263 260 263 264 262 267 269 269 272
259 259 258 257 255 255 256 258 256 253 254 252 256 254 244 259 272 251 244 249 254 264 261 280 273 265 263 259 259 257 256 253 254 257 255 252 257 256 261 262 262 257 261 262 267 269 275
256 254 254 253 252 250 247 249 249 244 246 248 248 250 252 255 257 247 243 247 258 263 262 257 268 267 263 263 267 256 255 257 254 248 256 256 260 265 264 264 262 260 259 269 271 276 276
253 251 249 248 247 246 243 240 239 238 237 238 241 249 252 246 252 245 246 254 260 268 269 259 262 263 261 259 260 257 255 266 258 249 260 261 263 266 265 265 265 264 268 263 265 268 272
252 249 247 243 242 240 238 234 231 226 227 224 240 251 252 242 249 245 247 255 261 266 266 263 263 263 265 264 259 262 270 270 262 251 253 259 263 268 264 258 257 260 262 266 271 268 272
270 265 256 243 239 237 233 229 224 214 211 222 240 253 253 232 242 248 250 255 261 260 262 265 268 268 262 261 260 262 263 270 269 255 250 256 267 263 264 272 268 265 263 259 264 268 271
271 269 263 268 238 232 230 224 221 211 203 228 242 256 254 239 246 249 259 256 260 258 258 261 261 265 268 263 267 263 266 277 270 259 258 251 263 263 268 270 271 264 261 263 267 274 269
272 275 271 265 240 233 227 221 216 212 207 223 244 248 250 246 252 252 251 256 255 258 261 260 263 264 264 263 265 267 266 273 267 264 270 264 266 264 264 272 271 265 262 258 260 266 269
274 271 274 271 255 254 226 220 216 209 209 227 244 251 246 246 244 253 250 259 254 257 259 257 262 259 259 262 262 265 267 270 271 269 268 267 267 267 270 275 274 273 271 261 256 259 267
273 274 265 261 262 254 261 222 212 208 206 233 243 250 249 258 242 246 250 254 254 252 256 258 260 259 261 262 264 267 265 266 268 267 264 269 269 271 270 273 274 273 270 267 264 268 269
277 272 271 261 256 256 257 237 210 200 203 242 243 251 253 252 247 245 249 254 255 256 261 262 260 263 261 262 270 272 271 273 273 272 266 268 268 271 270 275 276 272 267 266 270 269 271
280 275 270 264 257 254 257 247 220 198 205 241 248 247 250 254 249 248 254 254 256 255 259 266 262 260 269 274 275 275 275 273 270 268 267 267 267 269 271 273 268 271 279 276 271 273 271
277 279 268 268 265 254 251 254 235 239 201 232 246 246 250 252 253 255 255 259 259 260 260 261 264 269 269 272 272 270 270 273 270 266 261 260 265 269 268 268 274 273 277 281 278 278 276
280 278 274 265 268 260 253 253 246 246 245 226 241 250 252 252 252 256 257 257 258 260 262 261 265 267 268 267 265 263 264 270 273 275 261 257 260 262 267 270 270 276 284 280 283 278 281
285 280 273 268 265 266 258 258 256 260 255 234 244 245 253 252 256 256 255 256 260 261 264 265 261 263 262 261 263 264 264 266 267 269 271 260 261 255 261 267 274 278 284 289 273 283 296
304 295 284 274 266 266 258 261 259 253 254 250 253 258 249 257 263 263 260 258 259 259 259 266 263 262 259 258 260 265 266 264 266 268 265 261 263 265 265 267 269 286 283 270 283 289 291
315 314 308 292 277 263 263 259 257 253 262 266 260 260 259 258 270 271 270 271 262 265 259 261 264 261 259 262 263 269 269 269 265 266 265 264 263 268 267 271 278 287 282 286 288 284 289